DW8306 Weather Reports


time (UTC)temp
C
wind
direction
speed
KPH
gust
KPH
rain 1hr
cm
rain 24hr
cm
rain mn
cm
humidity
%
barometer
mb
20260510011604 21 135 0.0 0.0 0.00 3.05 3.05 86 1009.9
20260510010005 21 300 0.0 0.0 0.00 3.05 3.05 85 1010.2
20260510004506 22 63 0.0 1.6 0.00 3.05 3.05 84 1010.1
20260510003007 22 190 0.0 11.3 0.00 3.05 3.05 84 1009.8
20260510001522 22 273 0.0 3.2 0.00 3.05 3.05 84 1009.5
20260510000107 22 60 0.0 0.0 0.00 3.05 3.05 84 1009.5
20260509234606 22 283 0.0 9.7 0.00 3.05 3.05 85 1009.3
20260509233010 23 291 1.6 8.0 0.00 3.05 3.05 84 1009.3
20260509231518 25 255 1.6 12.9 0.00 3.05 3.05 80 1009.1
20260509230016 27 92 0.0 0.0 0.00 3.05 3.05 78 1008.7
20260509224619 27 56 0.0 0.0 0.00 3.05 3.05 77 1008.7
20260509223106 27 255 0.0 0.0 0.00 3.05 3.05 76 1008.3
20260509221522 27 61 0.0 0.0 0.00 3.05 3.05 76 1008.2
20260509220118 27 85 0.0 0.0 0.00 3.05 3.05 77 1008.1
20260509214632 27 4 0.0 0.0 0.00 3.05 3.05 75 1008.1
20260509213026 26 71 0.0 0.0 0.00 3.05 3.05 81 1008.4
20260509211620 26 75 0.0 0.0 0.00 3.05 3.05 80 1008.4
20260509210007 26 86 0.0 0.0 0.00 3.05 3.05 79 1008.7
20260509204512 26 70 0.0 0.0 0.00 3.05 3.05 78 1008.8
20260509203118 26 101 0.0 0.0 0.00 3.05 3.05 82 1009.0
20260509201516 26 114 0.0 0.0 0.00 3.05 3.05 81 1009.1
20260509200105 26 110 0.0 0.0 0.00 3.05 3.05 80 1009.2
20260509194514 25 71 0.0 0.0 0.00 3.05 3.05 84 1009.3
20260509193026 25 52 0.0 0.0 0.00 3.05 3.05 81 1009.4
20260509191506 25 354 0.0 0.0 0.00 3.05 3.05 83 1009.6
20260509190004 24 266 0.0 0.0 0.00 3.05 3.05 83 1009.8
20260509184616 23 96 0.0 0.0 0.00 3.05 3.05 84 1009.8
20260509183012 23 85 0.0 0.0 0.00 3.05 3.05 88 1010.3
20260509181621 23 68 0.0 0.0 0.00 3.05 3.05 87 1010.3
20260509180018 23 68 0.0 0.0 0.00 3.05 3.05 88 1010.3
20260509174506 23 68 0.0 0.0 0.00 3.05 3.05 88 1010.6
20260509173020 22 68 0.0 0.0 0.00 3.05 3.05 90 1010.7
20260509170023 21 58 0.0 0.0 0.00 3.05 3.05 95 1010.9
20260509164516 21 58 0.0 0.0 0.00 3.05 3.05 95 1010.9
20260509163116 20 58 0.0 0.0 0.00 3.05 3.05 95 1010.8
20260509161515 20 47 0.0 0.0 0.00 3.05 3.05 95 1010.8
20260509160015 20 93 0.0 0.0 0.00 3.05 3.05 96 1010.6
20260509154621 20 93 0.0 0.0 0.00 3.05 3.05 96 1010.5
20260509151505 20 93 0.0 0.0 0.00 3.05 3.05 96 1010.0
20260509150108 20 72 0.0 0.0 0.00 3.05 3.05 96 1010.3
20260509144512 20 72 0.0 0.0 0.00 3.05 3.05 96 1010.5
20260509143011 19 60 0.0 0.0 0.00 3.05 3.05 96 1010.5
20260509141504 19 60 0.0 0.0 0.00 3.05 3.05 96 1010.7
20260509140014 18 60 0.0 0.0 0.00 3.05 3.05 96 1010.7
20260509134519 18 60 0.0 0.0 0.00 3.05 3.05 96 1010.9
20260509133105 18 60 0.0 0.0 0.00 3.05 3.05 96 1010.7
20260509131511 18 69 0.0 0.0 0.00 3.05 3.05 96 1010.4
20260509130027 18 53 0.0 0.0 0.00 3.05 3.05 96 1010.4
20260509124520 18 4 0.0 0.0 0.00 3.05 3.05 96 1010.4
20260509123019 18 4 0.0 0.0 0.00 3.05 3.05 96 1010.1
20260509121525 18 4 0.0 0.0 0.00 3.05 3.05 96 1010.3
20260509120005 18 4 0.0 0.0 0.00 3.05 3.05 96 1010.2
20260509114515 18 4 0.0 0.0 0.00 3.05 3.05 96 1010.0
20260509113019 18 41 0.0 0.0 0.00 3.05 3.05 96 1010.1
20260509111513 18 41 0.0 0.0 0.00 3.05 3.05 95 1009.8
20260509110120 18 18 0.0 0.0 0.00 3.05 3.05 96 1009.5
20260509104509 17 18 0.0 0.0 0.00 3.05 3.05 96 1009.5
20260509103011 17 18 0.0 0.0 0.00 3.05 3.05 95 1009.3
20260509101619 17 18 0.0 0.0 0.00 3.05 3.05 95 1009.2
20260509100009 17 18 0.0 0.0 0.00 3.05 3.05 95 1009.3
20260509094515 17 18 0.0 0.0 0.00 3.05 3.05 95 1009.4
20260509093010 17 25 0.0 1.6 0.00 3.05 3.05 95 1009.2
20260509091511 17 4 0.0 3.2 0.00 3.05 3.05 95 1009.2
20260509090020 17 198 0.0 0.0 0.00 3.05 3.05 95 1009.4
20260509084608 17 198 0.0 1.6 0.03 3.05 3.05 95 1009.0
20260509083031 17 198 0.0 0.0 0.05 3.05 3.05 94 1009.2
20260509081513 17 198 0.0 0.0 0.13 3.05 3.05 94 1009.9
20260509080120 17 91 0.0 0.0 0.86 3.05 3.05 94 1009.1
20260509074506 17 91 0.0 1.6 2.06 3.02 3.02 94 1008.4
20260509073007 17 228 0.0 8.0 2.97 2.97 2.97 93 1008.3
20260509070004 18 258 0.0 1.6 1.96 1.96 1.96 92 1011.7
20260509064605 20 325 3.2 30.6 1.07 1.07 1.07 89 1011.5
20260509063013 20 29 0.0 0.0 0.00 0.00 0.00 90 1010.4
20260509061505 20 29 0.0 0.0 0.00 0.00 0.00 90 1010.5
20260509060040 20 29 0.0 0.0 0.00 0.00 0.00 89 1010.1
20260509054505 20 45 0.0 0.0 0.00 0.00 0.00 89 1010.5
20260509051603 20 45 0.0 0.0 0.00 0.00 0.00 89 1010.0
20260509050018 20 45 0.0 0.0 0.00 0.00 0.00 89 1010.5
20260509044504 20 45 0.0 0.0 0.00 0.00 0.00 88 1010.6
20260509041521 20 345 0.0 0.0 0.00 0.00 0.00 88 1010.9
20260509040105 21 43 0.0 0.0 0.00 0.00 0.00 88 1010.7
20260509034508 21 56 0.0 0.0 0.00 0.00 0.00 87 1010.6
20260509033004 21 354 0.0 0.0 0.00 0.00 0.00 87 1010.3
20260509031509 21 354 0.0 0.0 0.00 0.00 0.00 87 1010.3
20260509030028 21 354 0.0 0.0 0.00 0.00 0.00 87 1010.2
20260509024516 21 4 0.0 0.0 0.00 0.00 0.00 87 1009.9
20260509023014 21 54 0.0 1.6 0.00 0.00 0.00 87 1009.4
20260509020018 21 277 0.0 1.6 0.00 0.00 0.00 86 1008.9
20260509014519 21 265 0.0 1.6 0.00 0.00 0.00 86 1008.7
20260509013107 21 265 0.0 1.6 0.00 0.00 0.00 85 1008.7